Temp
-0 -0 -0 0 -0 -0 -1 -1 -2 -4 -5 -6 -7 -8 -8 -8 -8 -9 -9 -9 -9 -9 -9 -9 -9 -9 -9
-1 -1 -1 -1 -0 -1 -2 -2 -3 -4 -6 -8 -9 -9 -10 -10 -10 -10 -10 -10 -10 -10 -10 -10 -10 -10 -10
-1 -1 -1 -1 -1 -2 -3 -4 -6 -7 -8 -9 -10 -10 -11 -11 -11 -11 -11 -11 -11 -11 -10 -10 -10 -10 -10
-2 -2 -2 -3 -3 -4 -5 -6 -7 -8 -10 -10 -11 -11 -11 -12 -12 -12 -12 -12 -11 -11 -11 -11 -11 -11 -11
-3 -3 -4 -4 -5 -5 -6 -7 -9 -10 -10 -11 -11 -12 -12 -12 -12 -12 -12 -12 -12 -12 -12 -12 -12 -11 -11
-4 -5 -6 -6 -6 -7 -9 -9 -9 -11 -10 -10 -11 -12 -12 -12 -13 -13 -13 -13 -13 -13 -13 -13 -12 -12 -12
-6 -7 -7 -8 -9 -9 -10 -10 -11 -11 -12 -11 -12 -12 -13 -13 -13 -13 -13 -13 -13 -13 -13 -13 -13 -13 -13
-8 -8 -9 -9 -10 -10 -11 -11 -11 -12 -13 -12 -12 -13 -13 -13 -14 -14 -14 -14 -14 -14 -14 -14 -13 -13 -13
-9 -10 -10 -11 -11 -11 -12 -12 -12 -12 -15 -14 -13 -13 -13 -14 -14 -14 -14 -15 -15 -14 -14 -14 -14 -14 -14
-10 -11 -11 -11 -12 -12 -13 -13 -14 -13 -15 -15 -15 -15 -13 -14 -14 -15 -15 -15 -15 -15 -15 -15 -14 -14 -14
-11 -11 -11 -12 -13 -14 -15 -15 -15 -16 -17 -17 -16 -16 -17 -15 -15 -15 -16 -16 -16 -16 -16 -15 -15 -15 -15
-11 -11 -12 -13 -14 -15 -16 -16 -17 -17 -17 -18 -17 -18 -17 -17 -16 -16 -16 -16 -16 -16 -15 -15 -16 -15 -15
-12 -13 -14 -14 -15 -16 -16 -17 -18 -18 -18 -19 -18 -18 -18 -18 -17 -17 -17 -16 -16 -16 -16 -15 -15 -16 -15
-14 -15 -15 -16 -16 -16 -17 -17 -17 -18 -19 -19 -19 -19 -18 -18 -18 -18 -18 -17 -17 -16 -16 -16 -16 -16 -16
-15 -15 -16 -17 -17 -17 -18 -18 -19 -19 -19 -19 -19 -19 -19 -19 -19 -18 -18 -17 -17 -16 -16 -16 -16 -16 -16
-16 -16 -17 -18 -18 -18 -19 -19 -19 -19 -19 -19 -19 -19 -18 -18 -19 -19 -18 -17 -17 -17 -17 -16 -15 -16 -16
-16 -17 -17 -18 -19 -19 -19 -20 -20 -20 -19 -19 -19 -19 -19 -18 -17 -19 -18 -18 -17 -17 -17 -17 -16 -16 -16
Height
3106 3102 3098 3092 3087 3083 3078 3072 3067 3061 3055 3049 3041 3035 3029 3022 3017 3014 3010 3006 3002 2999 2997 2995 2994 2992 2992
3097 3092 3088 3082 3077 3072 3065 3058 3051 3045 3040 3035 3029 3024 3020 3013 3008 3003 2999 2994 2992 2989 2987 2985 2984 2982 2981
3086 3082 3078 3071 3066 3059 3053 3046 3041 3034 3028 3023 3016 3011 3007 3003 2999 2994 2990 2985 2981 2978 2976 2974 2973 2972 2971
3076 3071 3065 3060 3052 3045 3041 3036 3030 3024 3020 3013 3005 3001 2997 2993 2989 2984 2979 2975 2972 2968 2966 2964 2962 2961 2960
3068 3062 3056 3049 3042 3036 3029 3023 3021 3014 3008 3005 2997 2996 2991 2985 2979 2974 2969 2965 2962 2959 2955 2953 2951 2950 2949
3058 3051 3045 3038 3031 3024 3019 3013 3008 3008 2998 2998 2987 2984 2979 2974 2970 2966 2961 2956 2952 2949 2945 2942 2941 2940 2939
3046 3041 3035 3029 3022 3016 3011 3004 2999 2995 2988 2982 2977 2974 2969 2964 2959 2954 2951 2946 2942 2938 2936 2933 2930 2929 2929
3039 3032 3026 3020 3013 3006 3000 2994 2991 2985 2979 2971 2968 2963 2958 2955 2950 2946 2941 2937 2932 2928 2925 2922 2920 2919 2918
3032 3024 3019 3012 3005 2998 2993 2987 2982 2977 2972 2961 2957 2952 2946 2946 2942 2938 2933 2927 2923 2918 2915 2912 2910 2909 2909
3025 3018 3012 3005 2998 2991 2983 2977 2972 2966 2964 2955 2948 2941 2935 2935 2935 2929 2923 2918 2913 2909 2905 2902 2900 2898 2898
3014 3009 3004 2997 2991 2984 2977 2969 2963 2959 2956 2945 2941 2937 2931 2922 2921 2920 2914 2908 2903 2901 2897 2894 2891 2890 2889
3006 3000 2994 2988 2982 2974 2968 2961 2956 2950 2946 2941 2934 2927 2921 2915 2910 2910 2905 2900 2895 2891 2888 2885 2883 2881 2880
2997 2991 2985 2977 2972 2965 2960 2953 2949 2947 2939 2935 2927 2922 2918 2910 2902 2899 2892 2892 2888 2882 2879 2876 2874 2873 2872
2990 2982 2976 2971 2965 2957 2951 2946 2941 2938 2939 2929 2923 2917 2910 2905 2898 2891 2888 2880 2878 2875 2870 2867 2866 2864 2863
2983 2976 2970 2964 2959 2952 2947 2942 2934 2930 2927 2922 2917 2912 2907 2899 2892 2887 2881 2876 2871 2866 2862 2859 2859 2857 2856
2977 2970 2964 2959 2955 2949 2943 2936 2931 2925 2920 2913 2908 2902 2899 2898 2888 2878 2874 2868 2864 2860 2856 2851 2850 2851 2849
2973 2966 2962 2957 2950 2942 2938 2931 2926 2922 2916 2909 2903 2897 2889 2883 2884 2879 2867 2862 2857 2854 2851 2847 2844 2843 2841
Wind_Speed
34 35 37 41 43 46 49 51 51 50 49 47 45 45 45 46 45 44 42 41 39 37 36 36 35 35 33
36 38 41 44 47 50 52 54 55 54 50 46 44 41 40 41 41 41 41 40 39 38 37 36 36 35 34
41 42 44 47 50 52 52 52 50 50 46 43 42 41 40 38 38 38 38 37 38 38 37 36 36 34 33
43 45 47 49 52 54 53 49 47 44 40 39 40 38 38 37 35 35 36 36 37 37 38 36 34 33 34
44 46 48 49 52 52 51 50 41 41 40 34 38 34 35 34 34 34 34 34 35 36 38 36 34 33 33
45 47 47 49 51 49 47 47 45 38 40 35 39 37 36 34 33 35 35 34 33 34 35 35 34 32 32
46 46 48 46 47 46 44 45 44 42 43 43 42 40 38 37 34 34 34 34 34 33 33 33 33 32 32
44 44 43 43 44 46 47 47 44 42 41 45 43 42 41 37 36 34 34 33 33 32 32 32 33 32 32
40 39 40 41 43 46 45 45 44 41 36 43 42 44 43 38 34 32 32 31 31 32 32 31 32 32 32
36 38 40 41 42 42 43 44 42 42 36 41 43 45 47 41 33 33 32 28 27 29 31 32 31 32 32
39 40 40 40 40 39 37 38 39 37 34 39 41 42 44 46 39 32 31 28 27 27 28 29 30 30 31
40 41 40 39 38 37 36 35 34 35 35 35 39 42 45 43 40 33 30 28 29 27 26 26 27 28 29
40 39 38 38 38 38 35 34 33 30 29 31 34 37 38 39 42 37 37 31 29 29 28 25 25 26 27
38 38 38 38 36 36 36 35 34 30 24 26 29 33 35 36 38 37 34 36 32 30 30 27 24 24 24
38 39 38 37 35 34 33 32 31 31 29 27 27 28 30 33 36 33 32 32 30 31 29 26 21 20 22
36 37 37 36 35 33 31 30 31 31 31 31 32 33 31 25 31 35 32 33 30 28 26 27 23 17 21
34 34 34 33 32 31 31 31 32 31 30 31 33 33 36 37 27 27 35 33 31 28 24 24 25 21 21
Wind_Direction
310 309 309 308 309 309 310 312 313 313 312 311 307 304 303 300 300 300 299 295 292 290 288 286 284 282 279
311 312 311 310 310 310 313 314 316 316 316 314 309 305 302 300 301 299 297 294 291 289 288 284 281 279 278
313 313 311 311 310 313 315 316 317 316 314 313 309 308 306 306 306 302 298 295 292 289 285 282 281 279 276
313 312 312 312 314 316 316 316 316 316 314 314 311 312 312 310 307 305 302 299 295 290 287 283 280 278 276
311 312 313 315 316 317 317 317 319 317 314 319 311 313 312 311 309 307 304 300 297 293 289 287 284 278 274
314 315 318 317 317 318 318 317 318 316 311 313 310 313 313 313 314 310 308 304 298 293 291 289 285 278 274
317 318 318 318 317 316 317 316 317 315 313 313 312 313 313 313 314 311 308 303 298 293 290 284 279 275 272
316 318 318 317 316 316 317 316 316 315 313 311 312 312 312 315 315 313 307 300 295 293 289 284 281 277 271
318 318 316 314 313 313 313 312 313 312 315 309 311 311 310 315 313 310 305 301 299 294 290 285 282 279 272
317 315 313 313 312 310 310 310 312 312 316 311 313 315 311 315 317 312 307 303 298 292 292 289 283 279 276
317 315 314 312 311 310 310 311 310 311 316 312 313 312 311 312 317 317 314 311 303 299 295 290 285 279 275
317 317 316 315 314 313 313 311 311 315 315 314 312 312 312 315 316 319 319 316 312 308 301 291 282 277 272
320 320 321 323 323 320 319 316 315 315 312 310 309 310 313 316 317 323 321 320 316 311 306 296 286 279 275
325 326 328 327 327 326 323 319 317 317 317 315 313 315 317 317 317 320 322 319 317 310 304 300 293 286 276
331 329 328 328 328 326 324 322 323 325 328 327 325 321 317 319 320 320 319 315 313 311 308 304 298 290 279
338 336 334 331 329 330 330 329 331 333 333 332 329 327 325 324 329 329 323 320 317 315 313 308 305 294 285
344 341 338 338 338 340 339 337 336 334 335 335 333 330 328 329 336 340 323 323 319 317 315 310 311 309 287